Chicago, IL

1:35 AM CST on December 17, 2017 (GMT -0600)
Chicago-O'Hare International

Weather History for KORD - March, 2013

Change the Weather History Date:

Sunday, March 10, 2013

  Actual Average Record
Temperature  
Mean Temperature 45 °F 36 °F  
Max Temperature 51 °F 44 °F 70 °F (1955)
Min Temperature 39 °F 27 °F 2 °F (2003)
Degree Days  
Heating Degree Days 20 29  
Month to date heating degree days 340 309  
Since 1 July heating degree days 4742 5043  
Cooling Degree Days 0 0  
Month to date cooling degree days 0 0  
Year to date cooling degree days 0 0  
Moisture  
Dew Point 43 °F    
Average Humidity 81    
Maximum Humidity 100    
Minimum Humidity 62    
Precipitation  
Precipitation 0.87 in 0.07 in 0.87 in (2013)
Month to date precipitation 1.59 0.77  
Year to date precipitation 8.18 4.29  
Snow  
Snow 0.00 in 0.20 in 2.60 in (1924)
Month to date snowfall 9.9 2.4  
Since 1 July snowfall 29.5 31.9  
Snow Depth T in    
Sea Level Pressure  
Sea Level Pressure 29.71 in    
Wind  
Wind Speed 9 mph (South)    
Max Wind Speed 23 mph    
Max Gust Speed 28 mph    
Visibility 7 miles    
Events Fog , Rain    
T = Trace of Precipitation, MM = Missing Value Source: NWS Daily Summary

Daily Weather History Graph

Daily Weather History Graph

Search for Another Location

Airport or City:

Trip Planner

Search our weather history database for the weather conditions in past years. The results will help you decide how hot, cold, wet, or windy it might be!

Date:

Astronomy

Mar. 10, 2013 Rise Set
Actual Time 7:11 AM CDT 6:52 PM CDT
Civil Twilight 6:43 AM CDT 7:20 PM CDT
Nautical Twilight 6:11 AM CDT 7:52 PM CDT
Astronomical Twilight 5:38 AM CDT 8:25 PM CDT
Moon 6:11 AM CDT (3/10) 6:00 PM CDT (3/10)
Length of Visible Light 12h 36m
Length of Day
11h 41m
Waning Crescent, 2% of the Moon is Illuminated
Mar 10
Waning Crescent
Mar 11
New
Mar 19
First Quarter
Mar 27
Full
Apr 2
Last Quarter

Hourly Weather History & Observations

Time (CDT) Temp. Windchill Dew Point Humidity Pressure Visibility Wind Dir Wind Speed Gust Speed Precip Events Conditions
12:51 AM 44.1 °F 37.7 °F 33.1 °F 65% 29.84 in 10.0 mi South 12.7 mph - N/A   Overcast
1:51 AM 42.1 °F 34.9 °F 39.0 °F 89% 29.85 in 10.0 mi SSW 13.8 mph - 0.07 in Rain Light Rain
3:51 AM 41.0 °F 33.5 °F 39.0 °F 93% 29.82 in 7.0 mi South 13.8 mph - 0.07 in Rain Light Rain
4:45 AM 39.2 °F 31.6 °F 39.2 °F 100% 29.78 in 4.0 mi South 12.7 mph - 0.07 in Rain Light Rain
4:51 AM 39.9 °F 32.9 °F 39.9 °F 100% 29.80 in 4.0 mi South 11.5 mph - 0.08 in Rain Rain
5:36 AM 41.0 °F 33.5 °F 41.0 °F 100% 29.80 in 5.0 mi South 13.8 mph - 0.08 in Rain Rain
5:51 AM 42.1 °F 35.2 °F 41.0 °F 96% 29.82 in 6.0 mi South 12.7 mph - 0.10 in Rain Light Rain
6:34 AM 42.8 °F 36.6 °F 41.0 °F 93% 29.79 in 7.0 mi South 11.5 mph - 0.10 in Rain Light Rain
7:51 AM 39.9 °F 33.4 °F 39.9 °F 100% 29.79 in 5.0 mi South 10.4 mph - 0.04 in Rain Light Rain
8:51 AM 41.0 °F 38.0 °F 39.9 °F 96% 29.77 in 6.0 mi SSE 4.6 mph - 0.01 in   Overcast
9:21 AM 42.8 °F 41.1 °F 42.8 °F 100% 29.80 in 6.0 mi SW 3.5 mph - N/A   Overcast
9:51 AM 42.1 °F - 41.0 °F 96% 29.80 in 7.0 mi Calm Calm - 0.00 in   Overcast
10:27 AM 42.8 °F 40.1 °F 41.0 °F 93% 29.79 in 8.0 mi South 4.6 mph - N/A   Overcast
10:51 AM 42.1 °F 37.7 °F 39.9 °F 92% 29.80 in 8.0 mi South 6.9 mph - N/A   Overcast
11:51 AM 44.1 °F - 43.0 °F 96% 29.78 in 6.0 mi Calm Calm - 0.01 in Rain Light Rain
12:13 PM 44.6 °F 42.2 °F 42.8 °F 93% 29.76 in 9.0 mi SSE 4.6 mph - 0.00 in   Overcast
12:51 PM 46.0 °F 44.8 °F 43.0 °F 89% 29.79 in 9.0 mi SSE 3.5 mph - 0.00 in   Overcast
1:51 PM 45.0 °F 42.6 °F 42.1 °F 90% 29.75 in 10.0 mi SSE 4.6 mph - 0.01 in   Overcast
2:51 PM 46.9 °F - 44.1 °F 90% 29.70 in 7.0 mi Calm Calm - 0.00 in Rain Light Rain
3:13 PM 48.2 °F - 44.6 °F 87% 29.68 in 10.0 mi Calm Calm - 0.01 in Rain Light Rain
3:46 PM 44.6 °F 43.1 °F 42.8 °F 93% 29.70 in 3.0 mi SSE 3.5 mph - 0.03 in Rain Rain
3:51 PM 45.0 °F 42.6 °F 44.1 °F 97% 29.71 in 2.5 mi SE 4.6 mph - 0.03 in Rain Rain
4:51 PM 48.0 °F - 46.9 °F 96% 29.68 in 1.8 mi ENE 5.8 mph - 0.15 in Rain Rain
5:03 PM 46.4 °F - 46.4 °F 100% 29.67 in 1.5 mi Calm Calm - 0.04 in Rain Heavy Rain
5:20 PM 46.4 °F 43.5 °F 46.4 °F 100% 29.66 in 1.2 mi NE 5.8 mph - 0.11 in Fog , Rain Rain
5:51 PM 46.0 °F 41.9 °F 45.0 °F 96% 29.67 in 1.5 mi ENE 8.1 mph - 0.15 in Fog , Rain Light Rain
6:28 PM 44.6 °F 39.2 °F 44.6 °F 100% 29.61 in 3.0 mi ENE 10.4 mph - 0.03 in Rain Light Rain
6:46 PM 46.4 °F 42.4 °F 44.6 °F 93% 29.61 in 6.0 mi East 8.1 mph - 0.03 in   Mostly Cloudy
6:51 PM 46.0 °F 41.4 °F 45.0 °F 96% 29.62 in 6.0 mi East 9.2 mph - 0.03 in   Mostly Cloudy
7:51 PM 48.2 °F - 44.6 °F 87% 29.61 in 10.0 mi SSE 12.7 mph - N/A   Overcast
8:04 PM 50.0 °F - 44.6 °F 82% 29.60 in 10.0 mi South 16.1 mph - N/A   Overcast
8:51 PM 51.1 °F - 46.0 °F 83% 29.63 in 10.0 mi South 16.1 mph - 0.00 in Rain Light Rain
9:51 PM 50.0 °F - 46.0 °F 86% 29.64 in 10.0 mi SSW 15.0 mph - 0.00 in   Overcast
10:51 PM 48.9 °F - 46.9 °F 93% 29.64 in 10.0 mi SSW 10.4 mph - 0.00 in Rain Light Rain
11:16 PM 48.2 °F - 48.2 °F 100% 29.63 in 8.0 mi SSW 12.7 mph 18.4 mph 0.00 in   Light Drizzle
11:51 PM 48.0 °F - 46.9 °F 96% 29.64 in 7.0 mi SW 11.5 mph 19.6 mph 0.00 in Rain Light Rain
12:07 AM 48.2 °F - 46.4 °F 93% 29.62 in 10.0 mi SSW 12.7 mph - 0.01 in   Overcast
12:34 AM 48.2 °F - 46.4 °F 93% 29.61 in 10.0 mi SSW 10.4 mph - 0.01 in   Overcast
12:51 AM 48.0 °F - 46.9 °F 96% 29.62 in 10.0 mi SSW 10.4 mph - 0.01 in   Overcast